{"data":{"norad_id":46340,"intl_designator":"2020-062R","name":"STARLINK-1759","alt_names":[],"object_type":"PAYLOAD","status":"ACTIVE","operator":null,"country":"US","launch_date":"2020-09-03","launch_site_code":"AFETR","launch_vehicle":null,"mission":null,"orbit_class":"UNKNOWN","rcs_meters":null,"size_class":null,"mass_kg":null,"dimensions":null,"purposes":["comms"],"wikipedia_slug":null,"has_3d_model":false,"image_url":null,"decayed_at":null,"tle_current":{"epoch":"2026-07-19T18:10:18.834816Z","epoch_age_seconds":5442891,"freshness":"OLD","line1":"1 46340U 20062R   26200.75716244  .09062225  12442-4  58500-3 0  9997","line2":"2 46340  52.9962  28.0761 0011414 287.6003  72.3796 16.40705649325818","mean_motion":16.40705649,"eccentricity":0.0011414,"inclination_deg":52.9962,"raan_deg":28.0761,"arg_perigee_deg":287.6003,"mean_anomaly_deg":72.3796,"bstar":0.000585,"rev_number":32581,"period_min":87.767114160768,"perigee_km":156.458944537,"apogee_km":171.39316607966,"semimajor_km":6542.0630553083,"source":"CELESTRAK","updated_at":"2026-07-20T09:00:41.043048Z"}}}